FLOCK 4H-6 (66709 NORAD) Tracking and Keplerian Element Data

This shows tracking and keplerian element data for the satellite.

Feedback or suggestion? Click here.




ElementValue
Catalog66709
NameFLOCK 4H-6
Epoch Orbit325
Epoch Day354.1834749
Epoch Year2025
RAAN65.844
Inclination97.4442
Eccentricity0.0002417
Argument of Perigee217.5997
Mean Anonmoly142.5068
Mean Motion15.1788157
Decay Rate6.176E-05
L11 66709U 25276AV 25354.18347490 .00006176 00000+0 30801-3 0 9999
L22 66709 97.4442 65.8440 0002417 217.5997 142.5068 15.17881570 3250



Live tracking and technical data element details for FLOCK 4H-6 (NORAD 66709). FLOCK 4H-6 can be tracked NOW for your location showing map with azimuth and elevation plus other details from your city location.







IsCatalogInMostPopularTable: catalog: 66709, numindb: 22
Update: records affected: 1



GetName: 66709 FLOCK 4H-6

Hit Count: updated at: Wed, 15 Apr 2026 01:42:36 GMT